EZY502 EGAA-EGGP

Flight info

Callsign EZY502
Flight time 0h 32m
Altitude 19000
Route LISBO L603 PEPOD Q38 SOSIM L28 PENIL
Aircraft A20N/M-SDE2E3FGHIJ1RWXYZ/LB1G1

Departure

Time 2026-05-05 06:30
Airport Belfast International Airport (EGAA)

Arrival

Time 2026-05-05 07:02
Airport Liverpool John Lennon Airport (EGGP)
Time Latitude Longitude Altitude Speed Heading
2026-05-05 06:09 54.66074 -6.21643 237 ft 0 kts 335°
2026-05-05 06:20 54.66064 -6.21635 238 ft 2 kts 335°
2026-05-05 06:20 54.66050 -6.21624 238 ft 2 kts 335°
2026-05-05 06:20 54.66036 -6.21614 239 ft 2 kts 335°
2026-05-05 06:21 54.66023 -6.21603 239 ft 2 kts 335°
2026-05-05 06:21 54.66009 -6.21592 239 ft 2 kts 335°
2026-05-05 06:21 54.65995 -6.21582 239 ft 2 kts 335°
2026-05-05 06:21 54.65982 -6.21571 240 ft 2 kts 335°
2026-05-05 06:22 54.65969 -6.21560 240 ft 1 kts 335°
2026-05-05 06:22 54.65959 -6.21553 240 ft 2 kts 317°
2026-05-05 06:22 54.65951 -6.21530 241 ft 2 kts 283°
2026-05-05 06:22 54.65951 -6.21505 241 ft 1 kts 251°
2026-05-05 06:23 54.65954 -6.21495 242 ft 1 kts 242°
2026-05-05 06:23 54.65955 -6.21492 242 ft 0 kts 244°
2026-05-05 06:24 54.65937 -6.21561 240 ft 11 kts 248°
2026-05-05 06:25 54.65912 -6.21706 238 ft 13 kts 259°
2026-05-05 06:25 54.65871 -6.21870 235 ft 15 kts 241°
2026-05-05 06:25 54.65809 -6.22048 233 ft 17 kts 242°
2026-05-05 06:25 54.65772 -6.22262 230 ft 19 kts 265°
2026-05-05 06:26 54.65756 -6.22484 225 ft 15 kts 262°
2026-05-05 06:26 54.65746 -6.22646 221 ft 12 kts 262°
2026-05-05 06:26 54.65732 -6.22788 219 ft 11 kts 256°
2026-05-05 06:26 54.65698 -6.22919 218 ft 12 kts 231°
2026-05-05 06:27 54.65642 -6.23046 217 ft 14 kts 235°
2026-05-05 06:27 54.65514 -6.23319 213 ft 13 kts 208°
2026-05-05 06:27 54.65432 -6.23387 213 ft 11 kts 201°
2026-05-05 06:28 54.65361 -6.23391 214 ft 8 kts 162°
2026-05-05 06:28 54.65329 -6.23358 215 ft 4 kts 142°
2026-05-05 06:28 54.65311 -6.23328 216 ft 3 kts 133°
2026-05-05 06:28 54.65300 -6.23303 217 ft 2 kts 115°
2026-05-05 06:29 54.65297 -6.23284 217 ft 0 kts 94°
2026-05-05 06:29 54.65299 -6.23271 217 ft 3 kts 80°
2026-05-05 06:29 54.65329 -6.23149 219 ft 25 kts 65°
2026-05-05 06:29 54.65517 -6.22462 230 ft 101 kts 64°
2026-05-05 06:30 54.65901 -6.21004 271 ft 158 kts 65°
2026-05-05 06:30 54.66363 -6.19202 793 ft 168 kts 64°
2026-05-05 06:30 54.66835 -6.17383 1589 ft 167 kts 62°
2026-05-05 06:30 54.67310 -6.15568 2394 ft 168 kts 61°
2026-05-05 06:31 54.67810 -6.13672 2925 ft 184 kts 64°
2026-05-05 06:31 54.67921 -6.11345 3404 ft 212 kts 105°
2026-05-05 06:31 54.66987 -6.09162 3864 ft 241 kts 143°
2026-05-05 06:31 54.65546 -6.07562 4483 ft 259 kts 148°
2026-05-05 06:32 54.63963 -6.05878 5114 ft 277 kts 147°
2026-05-05 06:32 54.62347 -6.04006 5975 ft 285 kts 144°
2026-05-05 06:32 54.60745 -6.02015 6966 ft 287 kts 143°
2026-05-05 06:32 54.59149 -5.99946 7919 ft 291 kts 142°
2026-05-05 06:33 54.57554 -5.97828 8829 ft 295 kts 142°
2026-05-05 06:33 54.55929 -5.95648 9718 ft 299 kts 142°
2026-05-05 06:33 54.54307 -5.93460 10554 ft 305 kts 142°
2026-05-05 06:33 54.52600 -5.91156 11206 ft 317 kts 142°
2026-05-05 06:34 54.50854 -5.88797 11997 ft 323 kts 142°
2026-05-05 06:34 54.49075 -5.86395 12833 ft 327 kts 142°
2026-05-05 06:34 54.47264 -5.83951 13665 ft 331 kts 142°
2026-05-05 06:34 54.45467 -5.81529 14457 ft 335 kts 142°
2026-05-05 06:35 54.43625 -5.79046 15250 ft 338 kts 142°
2026-05-05 06:35 54.41764 -5.76541 16033 ft 342 kts 142°
2026-05-05 06:35 54.39885 -5.74016 16805 ft 345 kts 143°
2026-05-05 06:35 54.37980 -5.71459 17544 ft 348 kts 143°
2026-05-05 06:36 54.36058 -5.68882 18258 ft 352 kts 143°
2026-05-05 06:36 54.34089 -5.66249 18802 ft 355 kts 143°
2026-05-05 06:36 54.32101 -5.63593 19036 ft 357 kts 143°
2026-05-05 06:36 54.30122 -5.60952 19040 ft 356 kts 143°
2026-05-05 06:37 54.28070 -5.58089 19043 ft 357 kts 138°
2026-05-05 06:37 54.26145 -5.54637 19045 ft 358 kts 130°
2026-05-05 06:37 54.24478 -5.50846 19045 ft 359 kts 126°
2026-05-05 06:37 54.22973 -5.47215 19044 ft 359 kts 126°
2026-05-05 06:38 54.21352 -5.43310 19043 ft 358 kts 126°
2026-05-05 06:38 54.19734 -5.39455 19042 ft 358 kts 126°
2026-05-05 06:38 54.18139 -5.35679 19043 ft 357 kts 126°
2026-05-05 06:38 54.16669 -5.32217 19039 ft 358 kts 127°
2026-05-05 06:39 54.15188 -5.28735 19038 ft 357 kts 127°
2026-05-05 06:39 54.13598 -5.25003 19039 ft 357 kts 127°
2026-05-05 06:39 54.12046 -5.21360 19038 ft 358 kts 127°
2026-05-05 06:39 54.10492 -5.17718 19038 ft 358 kts 127°
2026-05-05 06:40 54.08875 -5.13933 19037 ft 358 kts 127°
2026-05-05 06:40 54.07295 -5.10238 19038 ft 358 kts 127°
2026-05-05 06:40 54.05761 -5.06656 19033 ft 359 kts 127°
2026-05-05 06:40 54.04154 -5.02914 19041 ft 359 kts 127°
2026-05-05 06:41 54.02546 -4.99173 19044 ft 359 kts 127°
2026-05-05 06:41 54.00933 -4.95428 19040 ft 359 kts 127°
2026-05-05 06:41 53.99427 -4.91937 19046 ft 359 kts 127°
2026-05-05 06:41 53.97773 -4.88111 19054 ft 358 kts 127°
2026-05-05 06:42 53.96146 -4.84351 19053 ft 358 kts 127°
2026-05-05 06:42 53.94562 -4.80699 19049 ft 358 kts 127°
2026-05-05 06:42 53.92986 -4.77068 19048 ft 358 kts 127°
2026-05-05 06:42 53.91365 -4.73336 19037 ft 358 kts 127°
2026-05-05 06:43 53.89765 -4.69660 19043 ft 358 kts 127°
2026-05-05 06:43 53.88279 -4.66251 19039 ft 357 kts 127°
2026-05-05 06:43 53.86756 -4.62761 19033 ft 358 kts 127°
2026-05-05 06:43 53.85113 -4.59007 19032 ft 358 kts 127°
2026-05-05 06:44 53.83482 -4.55283 19032 ft 358 kts 127°
2026-05-05 06:44 53.82022 -4.51709 19030 ft 358 kts 121°
2026-05-05 06:44 53.80736 -4.47508 19033 ft 358 kts 113°
2026-05-05 06:44 53.79698 -4.43170 19028 ft 358 kts 111°
2026-05-05 06:45 53.78722 -4.38889 19027 ft 358 kts 111°
2026-05-05 06:45 53.77797 -4.34836 19011 ft 357 kts 112°
2026-05-05 06:45 53.76896 -4.30924 18577 ft 358 kts 112°
2026-05-05 06:45 53.75974 -4.26956 17778 ft 366 kts 112°
2026-05-05 06:46 53.75046 -4.22983 17211 ft 367 kts 112°
2026-05-05 06:46 53.74088 -4.18898 16750 ft 364 kts 112°
2026-05-05 06:46 53.73079 -4.14610 16260 ft 361 kts 112°
2026-05-05 06:46 53.72086 -4.10397 15776 ft 357 kts 112°
2026-05-05 06:47 53.71133 -4.06359 15313 ft 355 kts 112°
2026-05-05 06:47 53.70157 -4.02237 14828 ft 352 kts 112°
2026-05-05 06:47 53.69185 -3.98138 14334 ft 350 kts 112°
2026-05-05 06:47 53.68228 -3.94110 13852 ft 347 kts 112°
2026-05-05 06:48 53.67304 -3.90232 13391 ft 345 kts 112°
2026-05-05 06:48 53.66367 -3.86299 12922 ft 342 kts 112°
2026-05-05 06:48 53.65426 -3.82358 12446 ft 340 kts 111°
2026-05-05 06:48 53.64488 -3.78435 12087 ft 333 kts 111°
2026-05-05 06:49 53.63628 -3.74851 11545 ft 323 kts 111°
2026-05-05 06:49 53.62765 -3.71264 10865 ft 315 kts 111°
2026-05-05 06:49 53.61917 -3.67740 10173 ft 307 kts 111°
2026-05-05 06:49 53.61092 -3.64331 9497 ft 300 kts 111°
2026-05-05 06:50 53.60304 -3.61125 8847 ft 294 kts 111°
2026-05-05 06:50 53.59489 -3.57834 8154 ft 289 kts 111°
2026-05-05 06:50 53.58686 -3.54615 7477 ft 285 kts 111°
2026-05-05 06:50 53.57918 -3.51531 6811 ft 282 kts 110°
2026-05-05 06:51 53.57211 -3.48426 6136 ft 282 kts 108°
2026-05-05 06:51 53.56508 -3.45250 5468 ft 289 kts 108°
2026-05-05 06:51 53.55795 -3.42038 4802 ft 296 kts 108°
2026-05-05 06:51 53.55056 -3.38735 4124 ft 303 kts 108°
2026-05-05 06:52 53.54299 -3.35404 3457 ft 308 kts 108°
2026-05-05 06:52 53.53518 -3.32012 2790 ft 313 kts 109°
2026-05-05 06:52 53.52740 -3.28641 2229 ft 314 kts 109°
2026-05-05 06:52 53.51951 -3.25235 1974 ft 303 kts 109°
2026-05-05 06:53 53.51204 -3.22027 1964 ft 285 kts 109°
2026-05-05 06:53 53.50492 -3.19005 1961 ft 268 kts 109°
2026-05-05 06:53 53.49758 -3.16196 1966 ft 265 kts 113°
2026-05-05 06:53 53.48950 -3.13426 1968 ft 265 kts 114°
2026-05-05 06:54 53.48217 -3.10593 1969 ft 263 kts 107°
2026-05-05 06:54 53.47635 -3.07640 1970 ft 263 kts 104°
2026-05-05 06:54 53.47097 -3.04741 1971 ft 263 kts 104°
2026-05-05 06:54 53.46493 -3.01864 1964 ft 265 kts 115°
2026-05-05 06:55 53.45484 -2.99244 1970 ft 267 kts 124°
2026-05-05 06:55 53.44389 -2.96714 1967 ft 266 kts 118°
2026-05-05 06:55 53.43695 -2.93876 1967 ft 263 kts 104°
2026-05-05 06:55 53.43203 -2.90936 1968 ft 262 kts 101°
2026-05-05 06:56 53.42746 -2.87964 1968 ft 262 kts 101°
2026-05-05 06:56 53.42296 -2.85002 1967 ft 262 kts 101°
2026-05-05 06:56 53.41847 -2.82063 1968 ft 262 kts 101°
2026-05-05 06:56 53.41395 -2.79102 1962 ft 253 kts 101°
2026-05-05 06:57 53.40973 -2.76369 1959 ft 238 kts 101°
2026-05-05 06:57 53.40557 -2.73758 1956 ft 223 kts 101°
2026-05-05 06:57 53.40158 -2.71312 1960 ft 215 kts 101°
2026-05-05 06:57 53.39762 -2.68882 1964 ft 215 kts 101°
2026-05-05 06:58 53.39371 -2.66472 1965 ft 215 kts 101°
2026-05-05 06:58 53.38982 -2.64025 1967 ft 215 kts 101°
2026-05-05 06:58 53.38462 -2.61696 1952 ft 220 kts 124°
2026-05-05 06:58 53.37211 -2.60254 1952 ft 224 kts 169°
2026-05-05 06:59 53.35717 -2.60563 1964 ft 218 kts 214°
2026-05-05 06:59 53.34727 -2.62360 1978 ft 205 kts 249°
2026-05-05 06:59 53.34316 -2.64485 2050 ft 187 kts 264°
2026-05-05 06:59 53.34171 -2.66640 2052 ft 187 kts 271°
2026-05-05 07:00 53.34105 -2.68820 1837 ft 183 kts 272°
2026-05-05 07:00 53.34026 -2.70882 1601 ft 177 kts 270°
2026-05-05 07:00 53.33928 -2.72928 1344 ft 172 kts 269°
2026-05-05 07:00 53.33832 -2.74884 1103 ft 163 kts 269°
2026-05-05 07:01 53.33745 -2.76707 875 ft 150 kts 269°
2026-05-05 07:01 53.33668 -2.78363 676 ft 140 kts 269°
2026-05-05 07:01 53.33594 -2.79968 504 ft 138 kts 268°
2026-05-05 07:01 53.33519 -2.81588 320 ft 138 kts 267°
2026-05-05 07:02 53.33445 -2.83173 133 ft 137 kts 267°
2026-05-05 07:02 53.33378 -2.84684 87 ft 110 kts 265°
2026-05-05 07:02 53.33339 -2.85507 83 ft 51 kts 265°
2026-05-05 07:02 53.33313 -2.86044 78 ft 30 kts 264°
2026-05-05 07:03 53.33305 -2.86258 76 ft 12 kts 265°
2026-05-05 07:03 53.33334 -2.86392 74 ft 13 kts 319°
2026-05-05 07:03 53.33410 -2.86430 75 ft 9 kts 360°
2026-05-05 07:03 53.33460 -2.86380 76 ft 7 kts 62°
2026-05-05 07:04 53.33468 -2.86301 77 ft 6 kts 85°
2026-05-05 07:04 53.33471 -2.86229 77 ft 6 kts 86°
2026-05-05 07:04 53.33475 -2.86159 78 ft 5 kts 83°
2026-05-05 07:04 53.33480 -2.86093 79 ft 5 kts 83°
2026-05-05 07:05 53.33483 -2.86028 80 ft 5 kts 85°
2026-05-05 07:05 53.33486 -2.85963 80 ft 3 kts 87°
2026-05-05 07:05 53.33486 -2.85956 81 ft 0 kts 87°
2026-05-05 07:05 53.33486 -2.85941 81 ft 4 kts 87°
2026-05-05 07:06 53.33489 -2.85850 81 ft 11 kts 85°
2026-05-05 07:06 53.33497 -2.85697 82 ft 12 kts 86°
2026-05-05 07:06 53.33502 -2.85579 83 ft 6 kts 84°
2026-05-05 07:06 53.33516 -2.85515 84 ft 5 kts 31°
2026-05-05 07:07 53.33551 -2.85507 84 ft 3 kts 359°
2026-05-05 07:07 53.33580 -2.85508 84 ft 4 kts 356°
2026-05-05 07:07 53.33613 -2.85516 84 ft 5 kts 354°
2026-05-05 07:07 53.33637 -2.85519 85 ft 1 kts 355°
2026-05-05 07:08 53.33651 -2.85521 85 ft 2 kts 354°
2026-05-05 07:08 53.33667 -2.85523 85 ft 0 kts 355°
2026-05-05 07:08 53.33668 -2.85523 85 ft 0 kts 355°
2026-05-05 07:09 53.33670 -2.85524 85 ft 0 kts 355°